Showing default

IRIDIUM 177, 56727

Orbit data source: Space-Track

IRIDIUM 177, 56727 is a payload satellite owned by Iridium (US) in LEO that was launched on Sat, 20 May 2023 UTC via an FALCON 9 launch vehicle from the Air Force Western Test Range (AFWTR). Payload-class satellites include a variety of spacecraft equipped with specific instruments for various scientific and technological missions. These include communications satellites like Starlink; space stations such as the ISS; scientific satellites like the Hubble; Earth observation satellites from companies like Planet Labs, Umbra, and HawkEye 360; GPS; miniature CubeSats for education and research; and military/defense satellites.

Loading next visibility...
Identifier
56727, 2023-068T
Orbit
LEO
Country
Flag of USUS
Related business
Manufacturer
NGIS SSG Gilbert
Mission
Operational Commercial Communications
Bus & Motor
ELITEBUS, Unknown motor
Mass
860 kg wet, 700 kg dry
Launch date (UTC)
2023-05-20 (3 years ago)
Launch vehicle
FALCON 9
Launch site
Air Force Western Test Range (AFWTR)
Object type
Payload
Rocket body
Debris
Shape & HBR
Trap Box + 2 Pan, 4.8 m
Radar Cross Section
10.154 m², Large (>1 m²)

Expand to show TLE details & history
Last TLE update: 2 days ago

TLE from 2 days ago
0 IRIDIUM 177
1 56727U 23068T   26171.43225514  .00000780  00000-0  99100-4 0  9997
2 56727  86.1964 327.2497 0002355  88.7713 271.3778 14.80229741166844
Epoch: 2026-06-20T10:22Z
TLE epoch observation values (Epoch: 2026-06-20T10:22:26.844Z)
Latitude
0.00002°
Longitude
-97.00911°
Altitude
631.673 km
Speed
7.543 km/s
True Right ascension
21h 48m 59s
True Declination
0° 00' 00"
Sunlit
Object was in full shadow at epoch
Visualization orbit readout
Latitude
Unknown
Longitude
Unknown
Altitude
Unknown
Speed
Unknown
Apparent Right ascension
Unknown
Apparent Declination
Unknown
Sunlit
N/A
Visualization observer readout
Local Sidereal Time
21:32:46
Azimuth
Unknown
Elevation
Unknown
Doppler factor
Unknown
Orbital elements
Apogee altitude
627.152 km
Perigee altitude
623.854 km
Semi-major axis
7,003.64 km
Eccentricity
0.00024
Inclination
86.1964°
RAAN
327.2497°
Arg. of periapsis
88.7713°
True anomaly
271.35082°
Mean anomaly
271.3778°
Eccentric anomaly
271.36431°
Mean motion
3.70303 °/min
Orbital period
97.22 mins
BSTAR
0.0000991
Loading maneuver chart data...
Computing Atmospheric mass density...
Loading historical data...
Loading historical data...
Loading historical data...
Loading historical data...
Loading historical data...
Loading historical data...
Loading historical data...

Documentation

Showing up to 5 results
|